1496862000.44,32444,18.69,73926.5,0.51,-5.69,-5.39,0,*49
1496862001.67,32445,18.69,73926.3,0.51,-5.77,-5.43,0,*4A
1496862002.9,32446,18.69,73928.0,0.51,-5.69,-5.39,0,*4B
1496862004.17,32447,18.69,73928.3,0.51,-5.69,-5.27,0,*45
1496862005.43,32448,18.69,73928.3,0.51,-5.77,-5.27,0,*45
1496862006.69,32449,18.69,73930.8,0.51,-5.69,-5.27,0,*4B
1496862007.93,32450,18.69,73930.3,0.53,-5.69,-5.27,0,*41
1496862009.16,32451,18.69,73930.3,0.53,-5.77,-5.27,0,*4F
1496862010.39,32452,18.69,73934.8,0.53,-5.77,-5.31,0,*4B
1496862011.66,32453,18.69,73932.0,0.51,-5.69,-5.27,0,*40
1496862012.89,32454,18.69,73930.8,0.53,-5.69,-5.15,0,*44
1496862014.15,32455,18.75,73934.8,0.51,-5.77,-5.31,0,*4E
1496862015.38,32456,18.69,73934.3,0.53,-5.77,-5.27,0,*48
1496862016.65,32457,18.69,73932.0,0.51,-5.77,-5.27,0,*4B
1496862017.91,32458,18.69,73934.3,0.51,-5.77,-5.27,0,*44
1496862019.14,32459,18.69,73934.5,0.53,-5.77,-5.27,0,*47
1496862020.41,32460,18.69,73932.8,0.51,-5.77,-5.27,0,*4F
1496862021.67,32461,18.69,73938.5,0.51,-5.69,-5.27,0,*41
1496862022.93,32462,18.69,73936.8,0.51,-5.77,-5.27,0,*4D
1496862024.2,32463,18.69,73934.0,0.51,-5.81,-5.31,0,*42
1496862025.43,32464,18.69,73934.8,0.53,-5.77,-5.31,0,*4E
1496862026.69,32465,18.69,73936.5,0.51,-5.89,-5.31,0,*4C
1496862027.95,32466,18.75,73938.5,0.51,-5.77,-5.27,0,*49
1496862029.22,32467,18.69,73936.3,0.51,-5.81,-5.27,0,*41
1496862030.48,32468,18.75,73938.8,0.51,-5.77,-5.27,0,*47
1496862031.74,32469,18.69,73936.3,0.51,-5.77,-5.27,0,*46
1496862032.98,32470,18.69,73934.5,0.53,-5.77,-5.19,0,*41
1496862034.24,32471,18.69,73934.8,0.51,-5.69,-5.19,0,*4D
1496862035.47,32472,18.69,73938.5,0.53,-5.69,-5.15,0,*40
1496862036.7,32473,18.75,73940.3,0.53,-5.69,-5.19,0,*4D
1496862037.93,32474,18.69,73936.0,0.53,-5.69,-5.19,0,*4A
1496862039.19,32475,18.75,73936.5,0.51,-5.69,-5.15,0,*45
1496862040.43,32476,18.75,73940.3,0.53,-5.69,-5.19,0,*48
1496862041.69,32477,18.69,73938.3,0.51,-5.77,-5.19,0,*44
1496862042.92,32478,18.69,73940.0,0.53,-5.77,-5.19,0,*49
1496862044.15,32479,18.69,73938.5,0.53,-5.89,-5.27,0,*44
1496862045.41,32480,18.69,73938.5,0.51,-5.77,-5.31,0,*46
1496862046.65,32481,18.75,73942.0,0.53,-5.81,-5.27,0,*4B
1496862047.91,32482,18.75,73940.8,0.51,-5.81,-5.19,0,*47
1496862049.14,32483,18.69,73938.3,0.53,-5.77,-5.19,0,*4D
1496862050.37,32484,18.69,73936.8,0.53,-5.69,-5.15,0,*49
1496862051.63,32485,18.69,73938.0,0.51,-5.69,-5.19,0,*46
1496862052.89,32486,18.75,73942.3,0.51,-5.77,-5.19,0,*4A
1496862054.16,32487,18.75,73942.3,0.51,-5.69,-5.27,0,*49
1496862055.42,32488,18.69,73940.5,0.51,-5.69,-5.19,0,*4B
1496862056.68,32489,18.69,73938.3,0.51,-5.69,-5.19,0,*4A
1496862057.91,32490,18.75,73940.8,0.53,-5.69,-5.15,0,*4C
1496862059.14,32491,18.69,73940.8,0.53,-5.65,-5.15,0,*41
1496862060.37,32492,18.75,73942.8,0.53,-5.65,-5.15,0,*42
1496862061.62,32493,18.75,73940.5,0.51,-5.55,-5.15,0,*42
1496862062.88,32494,18.69,73940.0,0.51,-5.65,-5.15,0,*46
1496862064.14,32495,18.69,73940.0,0.51,-5.65,-5.15,0,*47
1496862065.38,32496,18.69,73942.3,0.51,-5.55,-5.11,0,*43
1496862066.59,32497,18.69,73940.0,0.53,-5.55,-5.03,0,*43
1496862067.8,32498,18.75,73940.3,0.53,-5.55,-5.11,0,*4F
1496862069.04,32499,18.69,73940.0,0.51,-5.51,-5.03,0,*4B
1496862070.28,32500,18.69,73942.8,0.51,-5.51,-4.89,0,*49
1496862071.48,32501,18.69,73938.5,0.53,-5.43,-4.89,0,*49
1496862072.68,32502,18.69,73940.3,0.51,-5.43,-4.99,0,*49
1496862073.85,32503,18.69,73940.0,0.53,-5.51,-4.99,0,*49
1496862075.06,32504,18.69,73940.3,0.51,-5.51,-4.99,0,*4C
1496862076.29,32505,18.69,73940.3,0.51,-5.43,-4.89,0,*4F
1496862077.49,32506,18.69,73940.0,0.51,-5.43,-4.99,0,*4D
1496862078.66,32507,18.69,73942.5,0.53,-5.43,-4.99,0,*4E
1496862079.86,32508,18.75,73942.3,0.51,-5.43,-4.99,0,*43
1496862081.04,32509,18.69,73938.8,0.53,-5.39,-4.99,0,*4D
1496862082.3,32510,18.69,73938.3,0.51,-5.31,-4.89,0,*4E
1496862083.53,32511,18.69,73938.3,0.51,-5.39,-4.89,0,*47
1496862084.79,32512,18.69,73936.8,0.51,-5.31,-4.89,0,*4C
1496862086.03,32513,18.69,73938.8,0.51,-5.39,-4.85,0,*49
1496862087.26,32514,18.69,73936.0,0.53,-5.31,-4.77,0,*49
1496862088.48,32515,18.69,73938.0,0.53,-5.31,-4.77,0,*48
1496862089.72,32516,18.69,73936.5,0.53,-5.31,-4.85,0,*46
1496862090.94,32517,18.69,73934.8,0.53,-5.31,-4.77,0,*4A
1496862092.17,32518,18.69,73934.0,0.53,-5.31,-4.77,0,*45
1496862093.4,32519,18.69,73932.8,0.53,-5.31,-4.85,0,*49
1496862094.64,32520,18.69,73932.8,0.53,-5.31,-4.85,0,*43
1496862095.9,32521,18.69,73934.5,0.51,-5.31,-4.85,0,*40
1496862097.15,32522,18.69,73934.0,0.51,-5.31,-4.77,0,*4E
1496862098.36,32523,18.69,73934.8,0.53,-5.39,-4.85,0,*48
1496862099.58,32524,18.69,73932.3,0.53,-5.19,-4.77,0,*40
1496862100.81,32525,18.69,73930.5,0.53,-5.27,-4.85,0,*41
1496862102.01,32526,18.69,73932.5,0.53,-5.39,-4.77,0,*40
1496862103.24,32527,18.69,73932.5,0.53,-5.27,-4.85,0,*43
1496862104.42,32528,18.69,73932.8,0.53,-5.39,-4.99,0,*4E
1496862105.64,32529,18.69,73938.0,0.53,-5.31,-4.77,0,*47
1496862106.87,32530,18.69,73934.8,0.53,-5.27,-4.77,0,*48
1496862108.1,32531,18.69,73938.0,0.53,-5.31,-4.85,0,*43
1496862109.36,32532,18.69,73934.8,0.51,-5.19,-4.85,0,*48
1496862110.58,32533,18.69,73934.8,0.53,-5.19,-4.77,0,*46
1496862111.81,32534,18.69,73932.3,0.53,-5.27,-4.85,0,*41
1496862113.04,32535,18.69,73934.5,0.53,-5.27,-4.89,0,*4C
1496862114.22,32536,18.69,73932.5,0.53,-5.39,-4.99,0,*41
1496862115.42,32537,18.69,73934.5,0.53,-5.31,-4.99,0,*48
1496862116.65,32538,18.69,73938.3,0.53,-5.31,-4.89,0,*46
1496862117.91,32539,18.69,73936.0,0.51,-5.19,-4.89,0,*4F
1496862119.17,32540,18.69,73934.5,0.51,-5.19,-4.77,0,*40
1496862120.39,32541,18.75,73936.3,0.53,-5.19,-4.85,0,*4E
1496862121.62,32542,18.69,73932.3,0.53,-5.19,-4.77,0,*40
1496862122.85,32543,18.69,73934.8,0.53,-5.15,-4.85,0,*40
1496862124.08,32544,18.69,73932.8,0.53,-5.15,-4.85,0,*47
1496862125.31,32545,18.69,73934.0,0.53,-5.15,-4.77,0,*4B
1496862126.54,32546,18.69,73938.5,0.53,-5.15,-4.85,0,*45
1496862127.77,32547,18.69,73938.3,0.53,-5.19,-4.85,0,*48
1496862129.0,32548,18.75,73940.5,0.53,-5.19,-4.85,0,*47
1496862130.23,32549,18.69,73938.8,0.53,-5.19,-4.85,0,*46
1496862131.46,32550,18.69,73938.3,0.53,-5.19,-4.77,0,*43
1496862132.68,32551,18.69,73940.3,0.53,-5.19,-4.77,0,*42
1496862133.9,32552,18.69,73936.3,0.53,-5.11,-4.77,0,*49
1496862135.12,32553,18.69,73938.3,0.53,-5.11,-4.77,0,*48
1496862136.38,32554,18.69,73940.0,0.51,-5.11,-4.77,0,*4D
1496862137.6,32555,18.69,73940.5,0.53,-5.11,-4.77,0,*4E
1496862138.82,32556,18.69,73936.5,0.53,-5.11,-4.85,0,*40
1496862140.04,32557,18.69,73938.8,0.53,-5.11,-4.77,0,*4C
1496862141.27,32558,18.69,73938.0,0.53,-5.11,-4.77,0,*43
1496862142.49,32559,18.69,73938.8,0.53,-5.11,-4.77,0,*42
1496862143.72,32560,18.69,73938.5,0.53,-5.03,-4.77,0,*4B
1496862144.97,32561,18.69,73936.8,0.51,-5.11,-4.85,0,*46
1496862146.2,32562,18.69,73938.8,0.53,-5.03,-4.77,0,*49
1496862147.43,32563,18.69,73936.5,0.53,-5.03,-4.77,0,*48
1496862148.66,32564,18.69,73934.8,0.53,-5.03,-4.85,0,*42
1496862149.86,32565,18.69,73936.3,0.53,-4.99,-4.85,0,*41
1496862151.05,32566,18.75,73940.0,0.53,-4.99,-4.77,0,*4F
1496862152.28,32567,18.69,73938.5,0.53,-5.03,-4.77,0,*4C
1496862153.5,32568,18.69,73936.3,0.53,-4.89,-4.73,0,*44
1496862154.76,32569,18.69,73936.8,0.51,-4.89,-4.77,0,*43
1496862155.98,32570,18.69,73936.8,0.53,-5.03,-4.77,0,*4A
1496862157.21,32571,18.69,73940.8,0.55,-4.99,-4.73,0,*4B
1496862158.46,32572,18.69,73940.0,0.55,-4.93,-4.81,0,*4F
1496862159.7,32573,18.69,73938.5,0.55,-4.93,-4.81,0,*4E
1496862160.92,32574,18.69,73936.0,0.55,-4.99,-4.73,0,*4E
1496862162.15,32575,18.69,73940.0,0.55,-4.99,-4.73,0,*4F
1496862163.4,32576,18.69,73940.3,0.55,-4.85,-4.81,0,*4C
1496862164.64,32577,18.69,73940.0,0.55,-4.81,-4.73,0,*44
1496862165.89,32578,18.69,73942.3,0.55,-4.93,-4.73,0,*48
1496862167.13,32579,18.75,73942.3,0.55,-4.85,-4.73,0,*4E
1496862168.38,32580,18.75,73942.3,0.55,-4.85,-4.81,0,*45
1496862169.58,32581,18.69,73942.0,0.53,-4.99,-4.85,0,*4B
1496862170.82,32582,18.69,73936.8,0.55,-4.93,-4.73,0,*4D
1496862172.07,32583,18.69,73942.5,0.55,-4.85,-4.81,0,*46
1496862173.32,32584,18.75,73944.5,0.55,-4.85,-4.81,0,*41
1496862174.57,32585,18.69,73942.3,0.55,-4.93,-4.81,0,*47
1496862175.79,32586,18.69,73942.8,0.57,-4.93,-4.85,0,*42
1496862176.99,32587,18.69,73940.8,0.53,-4.99,-4.89,0,*41
1496862178.24,32588,18.69,73940.8,0.55,-4.93,-4.85,0,*4E
1496862179.43,32589,18.69,73940.3,0.57,-4.99,-4.85,0,*47
1496862180.68,32590,18.69,73942.0,0.55,-4.85,-4.93,0,*47
1496862181.9,32591,18.69,73940.8,0.57,-4.93,-4.93,0,*43
1496862183.14,32592,18.69,73940.5,0.55,-4.85,-4.81,0,*46
1496862184.39,32593,18.69,73940.8,0.55,-4.85,-4.73,0,*4A
1496862185.62,32594,18.69,73940.3,0.53,-4.89,-4.85,0,*4E
1496862186.84,32595,18.69,73940.3,0.53,-4.85,-4.85,0,*43
1496862188.06,32596,18.69,73940.8,0.57,-4.81,-4.81,0,*44
1496862189.31,32597,18.69,73942.3,0.55,-4.81,-4.81,0,*47
1496862190.53,32598,18.69,73942.3,0.53,-4.85,-4.85,0,*4E
1496862191.76,32599,18.69,73940.5,0.53,-4.85,-4.85,0,*4F
1496862192.98,32600,18.75,73944.3,0.57,-4.81,-4.85,0,*4C
1496862194.23,32601,18.69,73940.8,0.55,-4.85,-4.93,0,*4C
1496862195.47,32602,18.69,73940.8,0.55,-4.85,-4.85,0,*48
1496862196.69,32603,18.69,73940.0,0.57,-4.93,-4.93,0,*4B
1496862197.86,32604,18.69,73940.3,0.53,-4.99,-4.99,0,*48
1496862199.06,32605,18.69,73940.8,0.53,-5.03,-4.99,0,*4B
1496862200.31,32606,18.69,73940.0,0.55,-4.93,-4.85,0,*4B
1496862201.55,32607,18.69,73938.5,0.55,-4.93,-4.93,0,*4D
1496862202.75,32608,18.75,73942.8,0.55,-4.99,-4.99,0,*42
1496862203.99,32609,18.69,73940.0,0.55,-4.93,-4.93,0,*43
1496862205.24,32610,18.75,73942.3,0.55,-4.85,-4.85,0,*4B
1496862206.48,32611,18.69,73938.3,0.55,-4.93,-4.93,0,*4A
1496862207.73,32612,18.69,73944.3,0.55,-4.85,-4.93,0,*4E
1496862208.9,32613,18.69,73942.5,0.57,-4.99,-4.99,0,*4A
1496862210.12,32614,18.69,73938.3,0.55,-4.93,-4.99,0,*45
1496862211.34,32615,18.69,73942.5,0.55,-4.99,-4.93,0,*44
1496862212.58,32616,18.69,73938.3,0.55,-4.93,-4.93,0,*4D
1496862213.8,32617,18.69,73940.8,0.55,-4.93,-4.99,0,*46
1496862215.02,32618,18.69,73936.0,0.55,-4.93,-4.99,0,*49
1496862216.25,32619,18.69,73938.0,0.55,-4.99,-5.07,0,*44
1496862217.47,32620,18.69,73938.0,0.53,-5.11,-5.11,0,*4E
1496862218.71,32621,18.69,73938.5,0.53,-5.03,-5.03,0,*4F
1496862219.94,32622,18.69,73938.8,0.53,-4.89,-5.03,0,*4F
1496862221.18,32623,18.75,73938.3,0.53,-5.03,-5.03,0,*4D
1496862222.35,32624,18.69,73936.3,0.53,-4.99,-4.99,0,*4A
1496862223.55,32625,18.69,73932.8,0.53,-5.03,-4.99,0,*49
1496862224.75,32626,18.69,73936.3,0.53,-5.03,-4.99,0,*4A
1496862225.92,32627,18.69,73938.0,0.53,-4.99,-4.99,0,*49
1496862227.11,32628,18.69,73936.8,0.53,-4.89,-4.99,0,*47
1496862228.35,32629,18.69,73938.3,0.51,-5.03,-4.99,0,*47
1496862229.57,32630,18.69,73936.8,0.53,-4.89,-4.85,0,*43
1496862230.77,32631,18.69,73940.8,0.53,-4.89,-4.99,0,*4F
1496862232.0,32632,18.69,73938.3,0.53,-4.89,-4.89,0,*4D
1496862233.22,32633,18.69,73936.8,0.53,-4.85,-4.89,0,*40
1496862234.47,32634,18.69,73936.5,0.51,-4.85,-4.89,0,*45
1496862235.7,32635,18.69,73938.5,0.53,-4.89,-4.89,0,*4A
1496862236.9,32636,18.69,73936.0,0.53,-5.03,-4.99,0,*4B
1496862238.15,32637,18.69,73938.0,0.55,-4.85,-4.81,0,*4A
1496862239.37,32638,18.69,73936.5,0.57,-4.85,-4.85,0,*43
1496862240.6,32639,18.69,73938.5,0.55,-4.99,-4.93,0,*4A
1496862241.76,32640,18.69,73940.0,0.53,-4.99,-4.99,0,*48
1496862242.96,32641,18.69,73938.3,0.53,-4.99,-4.89,0,*48
1496862244.16,32642,18.69,73938.5,0.53,-4.99,-4.89,0,*4B
1496862245.39,32643,18.69,73940.0,0.53,-4.89,-4.89,0,*4B
1496862246.61,32644,18.69,73942.3,0.57,-4.93,-4.93,0,*48
1496862247.83,32645,18.69,73942.0,0.57,-4.93,-4.85,0,*4E
1496862249.08,32646,18.69,73942.5,0.55,-4.93,-4.85,0,*4F
1496862250.32,32647,18.69,73940.3,0.55,-4.93,-4.85,0,*4E
1496862251.52,32648,18.69,73942.8,0.57,-4.99,-4.85,0,*49
1496862252.74,32649,18.69,73944.3,0.55,-4.99,-4.93,0,*4D
1496862253.94,32650,18.69,73946.0,0.53,-5.03,-4.99,0,*4B
1496862255.14,32651,18.69,73942.8,0.57,-4.99,-4.85,0,*41
1496862256.37,32652,18.69,73944.3,0.55,-4.99,-4.85,0,*40
1496862257.59,32653,18.69,73944.8,0.55,-4.99,-4.93,0,*46
1496862258.81,32654,18.69,73942.0,0.55,-4.99,-4.93,0,*41
1496862260.04,32655,18.69,73942.0,0.55,-5.07,-4.99,0,*4C
1496862261.26,32656,18.69,73942.3,0.55,-4.99,-4.85,0,*44
1496862262.51,32657,18.69,73946.5,0.55,-5.11,-4.93,0,*43
1496862263.77,32658,18.69,73944.5,0.55,-5.07,-4.93,0,*4B
1496862265.02,32659,18.69,73940.5,0.55,-5.07,-4.93,0,*4A
1496862266.22,32660,18.75,73946.8,0.57,-4.99,-4.93,0,*44
1496862267.45,32661,18.69,73944.0,0.55,-5.07,-4.99,0,*4B
1496862268.7,32662,18.75,73946.5,0.55,-5.07,-4.93,0,*42
1496862269.96,32663,18.69,73942.5,0.55,-5.07,-4.93,0,*43
1496862271.22,32664,18.69,73942.3,0.55,-5.07,-4.93,0,*44
1496862272.47,32665,18.69,73942.0,0.55,-5.07,-4.93,0,*45
1496862273.73,32666,18.69,73940.8,0.55,-5.07,-4.93,0,*46
1496862274.98,32667,18.69,73940.3,0.55,-5.11,-4.93,0,*40
1496862276.23,32668,18.69,73942.0,0.55,-5.07,-4.93,0,*48
1496862277.46,32669,18.69,73940.8,0.55,-5.15,-4.99,0,*40
1496862278.69,32670,18.69,73938.3,0.55,-5.15,-4.99,0,*48
1496862279.94,32671,18.69,73936.5,0.55,-5.07,-4.93,0,*40
1496862281.15,32672,18.69,73938.5,0.53,-5.15,-4.99,0,*4C
1496862282.35,32673,18.69,73940.0,0.53,-5.15,-4.99,0,*4D
1496862283.61,32674,18.69,73938.5,0.55,-5.15,-5.07,0,*4A
1496862284.87,32675,18.69,73938.3,0.55,-5.15,-5.07,0,*4B
1496862286.1,32676,18.69,73938.8,0.55,-5.23,-4.99,0,*4B
1496862287.36,32677,18.75,73940.8,0.55,-5.15,-5.07,0,*49
1496862288.59,32678,18.69,73940.5,0.55,-5.15,-4.99,0,*40
1496862289.82,32679,18.69,73940.5,0.55,-5.15,-4.99,0,*41
1496862291.02,32680,18.69,73942.8,0.57,-5.23,-4.99,0,*40
1496862292.25,32681,18.69,73942.0,0.55,-5.23,-4.99,0,*43
1496862293.48,32682,18.69,73940.8,0.55,-5.15,-4.99,0,*45
1496862294.75,32683,18.69,73942.8,0.55,-5.23,-5.07,0,*47
1496862295.97,32684,18.69,73942.0,0.55,-5.23,-4.99,0,*46
1496862297.24,32685,18.69,73942.8,0.55,-5.23,-5.07,0,*41
1496862298.5,32686,18.69,73942.8,0.55,-5.23,-5.07,0,*42
1496862299.76,32687,18.69,73940.0,0.55,-5.27,-5.07,0,*47
1496862301.02,32688,18.69,73942.0,0.55,-5.27,-5.11,0,*4F
1496862302.25,32689,18.69,73942.5,0.55,-5.35,-5.11,0,*4D
1496862303.45,32690,18.69,73944.5,0.53,-5.39,-5.15,0,*4B
1496862304.65,32691,18.69,73938.8,0.53,-5.43,-5.19,0,*4B
1496862305.86,32692,18.75,73946.0,0.53,-5.51,-5.27,0,*46
1496862307.1,32693,18.69,73946.3,0.55,-5.47,-5.23,0,*42
1496862308.31,32694,18.69,73940.3,0.57,-5.39,-5.23,0,*4E
1496862309.54,32695,18.69,73942.0,0.55,-5.39,-5.23,0,*4D
1496862310.78,32696,18.69,73944.5,0.55,-5.39,-5.15,0,*4B
1496862312.01,32697,18.69,73942.8,0.55,-5.39,-5.15,0,*4A
1496862313.24,32698,18.69,73942.3,0.55,-5.39,-5.15,0,*45
1496862314.47,32699,18.69,73940.3,0.55,-5.39,-5.15,0,*44
1496862315.7,32700,18.69,73938.0,0.55,-5.39,-5.15,0,*45
1496862316.93,32701,18.75,73944.8,0.55,-5.39,-5.15,0,*44
1496862318.17,32702,18.69,73944.8,0.55,-5.47,-5.15,0,*4E
1496862319.4,32703,18.69,73946.5,0.55,-5.39,-5.23,0,*43
1496862320.64,32704,18.69,73944.8,0.55,-5.47,-5.27,0,*49
1496862321.9,32705,18.75,73944.8,0.55,-5.61,-5.27,0,*4C
1496862323.12,32706,18.69,73942.3,0.55,-5.65,-5.39,0,*44
1496862324.35,32707,18.69,73940.3,0.55,-5.73,-5.39,0,*42
1496862325.57,32708,18.69,73944.3,0.55,-5.73,-5.47,0,*44
1496862326.79,32709,18.69,73940.8,0.55,-5.73,-5.47,0,*45
1496862328.02,32710,18.69,73946.0,0.55,-5.65,-5.39,0,*43
1496862329.25,32711,18.69,73944.3,0.55,-5.65,-5.39,0,*42
1496862330.46,32712,18.69,73944.3,0.57,-5.65,-5.35,0,*4F
1496862331.68,32713,18.69,73946.3,0.55,-5.73,-5.39,0,*47
1496862332.88,32714,18.69,73944.5,0.53,-5.77,-5.43,0,*4F
1496862334.11,32715,18.69,73946.8,0.53,-5.65,-5.27,0,*4F
1496862335.35,32716,18.69,73946.5,0.53,-5.65,-5.31,0,*4B
1496862336.58,32717,18.69,73942.0,0.53,-5.65,-5.31,0,*4A
1496862337.81,32718,18.69,73944.5,0.53,-5.69,-5.31,0,*49
1496862339.01,32719,18.69,73942.5,0.53,-5.77,-5.39,0,*4F
1496862340.23,32720,18.69,73942.8,0.55,-5.73,-5.39,0,*47
1496862341.44,32721,18.69,73942.8,0.57,-5.77,-5.39,0,*40
1496862342.66,32722,18.75,73946.5,0.55,-5.77,-5.39,0,*41
1496862343.9,32723,18.69,73942.3,0.55,-5.85,-5.47,0,*44
1496862345.1,32724,18.69,73946.0,0.53,-5.89,-5.51,0,*4E
1496862346.34,32725,18.69,73942.0,0.55,-5.85,-5.47,0,*42
1496862347.54,32726,18.69,73942.0,0.53,-5.89,-5.51,0,*4C
1496862348.75,32727,18.69,73942.5,0.53,-5.81,-5.51,0,*45
1496862349.95,32728,18.69,73936.8,0.53,-5.81,-5.43,0,*49
1496862351.16,32729,18.69,73940.5,0.53,-5.93,-5.43,0,*4B
1496862352.34,32730,18.69,73940.3,0.53,-5.97,-5.51,0,*44
1496862353.55,32731,18.69,73938.0,0.53,-5.93,-5.51,0,*41
1496862354.76,32732,18.69,73942.0,0.51,-5.97,-5.51,0,*44
1496862355.94,32733,18.69,73936.0,0.53,-5.97,-5.51,0,*47
1496862357.12,32734,18.69,73938.3,0.53,-5.97,-5.55,0,*44
1496862358.31,32735,18.69,73936.8,0.53,-5.97,-5.55,0,*45
1496862359.49,32736,18.69,73936.8,0.53,-5.97,-5.55,0,*46
1496862360.67,32737,18.69,73938.0,0.53,-5.97,-5.51,0,*43
1496862361.85,32738,18.69,73938.3,0.53,-5.97,-5.51,0,*4C
1496862363.03,32739,18.69,73940.3,0.53,-6.05,-5.51,0,*45
1496862364.21,32740,18.69,73942.8,0.53,-6.05,-5.55,0,*4F
1496862365.39,32741,18.69,73942.3,0.53,-6.05,-5.55,0,*4E
1496862366.57,32742,18.69,73940.3,0.53,-6.09,-5.55,0,*41
1496862367.76,32743,18.69,73938.5,0.53,-6.09,-5.55,0,*40
1496862368.94,32744,18.69,73938.8,0.53,-6.09,-5.51,0,*43
1496862370.14,32745,18.69,73938.3,0.55,-6.05,-5.47,0,*4F
1496862371.35,32746,18.69,73942.8,0.55,-6.13,-5.47,0,*4B
1496862372.55,32747,18.69,73940.0,0.55,-6.05,-5.47,0,*4D
1496862373.75,32748,18.69,73938.0,0.55,-6.05,-5.47,0,*42
1496862374.95,32749,18.69,73942.3,0.55,-6.13,-5.47,0,*44
1496862376.16,32750,18.69,73942.3,0.55,-6.13,-5.51,0,*4B
1496862377.36,32751,18.75,73946.8,0.55,-6.05,-5.47,0,*4A
1496862378.57,32752,18.69,73946.3,0.55,-6.13,-5.47,0,*4E
1496862379.77,32753,18.69,73942.8,0.55,-6.05,-5.39,0,*41
1496862380.95,32754,18.69,73946.0,0.57,-6.13,-5.51,0,*4D
1496862382.16,32755,18.69,73942.0,0.55,-6.13,-5.51,0,*4E
1496862383.36,32756,18.69,73942.5,0.55,-6.13,-5.47,0,*4A
1496862384.57,32757,18.69,73946.3,0.55,-6.13,-5.47,0,*4B
1496862385.8,32758,18.69,73942.8,0.55,-6.19,-5.47,0,*4E
1496862387.03,32759,18.69,73944.5,0.57,-6.19,-5.61,0,*49
1496862388.26,32760,18.69,73940.3,0.55,-6.19,-5.51,0,*42
1496862389.49,32761,18.69,73944.3,0.55,-6.19,-5.47,0,*44
1496862390.72,32762,18.69,73940.5,0.55,-6.19,-5.47,0,*47
1496862391.96,32763,18.75,73944.5,0.55,-6.19,-5.51,0,*41
1496862393.19,32764,18.69,73940.8,0.55,-6.19,-5.47,0,*41
1496862394.42,32765,18.69,73942.0,0.55,-6.19,-5.51,0,*47
1496862395.65,32766,18.69,73942.5,0.55,-6.19,-5.47,0,*43
1496862396.89,32767,18.69,73940.0,0.55,-6.19,-5.51,0,*45
1496862398.12,32768,18.69,73944.5,0.55,-6.19,-5.51,0,*4A
1496862399.36,32769,18.69,73946.5,0.55,-6.19,-5.51,0,*4B
1496862400.56,32770,18.69,73942.3,0.57,-6.27,-5.51,0,*4C
1496862401.79,32771,18.69,73940.3,0.55,-6.27,-5.51,0,*4F
1496862403.01,32772,18.69,73942.8,0.55,-6.27,-5.47,0,*4B
1496862404.22,32773,18.69,73942.3,0.55,-6.31,-5.51,0,*4A
1496862405.47,32774,18.69,73942.8,0.55,-6.27,-5.61,0,*49
1496862406.7,32775,18.69,73940.0,0.55,-6.27,-5.51,0,*4B
1496862407.9,32776,18.69,73936.5,0.57,-6.27,-5.51,0,*4A
1496862409.11,32777,18.69,73936.0,0.55,-6.31,-5.51,0,*4E
1496862410.32,32778,18.69,73938.5,0.55,-6.31,-5.51,0,*41
1496862411.5,32779,18.69,73938.5,0.57,-6.31,-5.47,0,*45
1496862412.68,32780,18.69,73938.3,0.57,-6.31,-5.51,0,*44
1496862413.88,32781,18.69,73942.0,0.55,-6.39,-5.47,0,*48
1496862415.08,32782,18.69,73940.8,0.55,-6.39,-5.51,0,*4C
1496862416.26,32783,18.69,73936.0,0.57,-6.39,-5.51,0,*4F
1496862417.46,32784,18.69,73936.8,0.55,-6.39,-5.51,0,*4A
1496862418.64,32785,18.69,73942.3,0.57,-6.39,-5.51,0,*49
1496862419.85,32786,18.69,73940.0,0.57,-6.43,-5.61,0,*44
1496862421.03,32787,18.69,73938.3,0.57,-6.43,-5.47,0,*41
1496862422.2,32788,18.69,73938.5,0.57,-6.39,-5.51,0,*44
1496862423.4,32789,18.69,73940.8,0.55,-6.39,-5.47,0,*40
1496862424.59,32790,18.69,73938.8,0.57,-6.43,-5.51,0,*40
1496862425.76,32791,18.69,73942.5,0.57,-6.43,-5.47,0,*46
1496862426.94,32792,18.69,73940.0,0.57,-6.43,-5.47,0,*45
1496862428.14,32793,18.75,73944.8,0.55,-6.43,-5.47,0,*46
1496862429.32,32794,18.69,73940.8,0.57,-6.43,-5.51,0,*44
1496862430.53,32795,18.69,73940.3,0.55,-6.43,-5.47,0,*40
1496862431.71,32796,18.69,73942.0,0.57,-6.51,-5.51,0,*45
1496862432.92,32797,18.69,73944.3,0.55,-6.51,-5.51,0,*46
1496862434.13,32798,18.69,73940.5,0.55,-6.55,-5.51,0,*4D
1496862435.31,32799,18.69,73940.5,0.57,-6.55,-5.51,0,*4E
1496862436.54,32800,18.69,73940.8,0.55,-6.63,-5.51,0,*46
1496862437.74,32801,18.69,73944.3,0.57,-6.63,-5.51,0,*45
1496862438.94,32802,18.75,73946.8,0.55,-6.69,-5.51,0,*4E
1496862440.17,32803,18.69,73944.5,0.55,-6.63,-5.51,0,*45
1496862441.34,32804,18.69,73942.8,0.57,-6.69,-5.51,0,*4A
1496862442.54,32805,18.69,73946.0,0.55,-6.69,-5.51,0,*49
1496862443.72,32806,18.69,73946.3,0.57,-6.69,-5.51,0,*48
1496862444.92,32807,18.69,73944.5,0.57,-6.63,-5.47,0,*44
1496862446.12,32808,18.69,73944.5,0.55,-6.69,-5.51,0,*44
1496862447.29,32809,18.69,73946.8,0.57,-6.69,-5.51,0,*47
1496862448.47,32810,18.69,73944.3,0.57,-6.69,-5.51,0,*4F
1496862449.65,32811,18.69,73940.8,0.57,-6.77,-5.51,0,*41
1496862450.86,32812,18.69,73946.8,0.57,-6.81,-5.61,0,*48
1496862452.06,32813,18.69,73946.0,0.57,-6.81,-5.65,0,*4D
1496862453.27,32814,18.69,73946.3,0.57,-6.85,-5.65,0,*4E
1496862454.47,32815,18.69,73944.8,0.57,-6.85,-5.61,0,*4B
1496862455.68,32816,18.69,73944.0,0.57,-6.81,-5.65,0,*48
1496862456.89,32817,18.69,73946.0,0.57,-6.81,-5.61,0,*4D
1496862458.12,32818,18.69,73940.0,0.57,-6.93,-5.61,0,*41
1496862459.32,32819,18.69,73942.5,0.57,-6.85,-5.65,0,*43
1496862460.55,32820,18.69,73946.0,0.59,-6.89,-5.61,0,*4F
1496862461.78,32821,18.69,73944.3,0.57,-6.93,-5.73,0,*48
1496862463.01,32822,18.69,73946.5,0.59,-6.89,-5.61,0,*4D
1496862464.22,32823,18.69,73944.3,0.57,-6.89,-5.61,0,*42
1496862465.45,32824,18.69,73942.3,0.57,-6.97,-5.65,0,*4E
1496862466.67,32825,18.69,73944.5,0.57,-6.93,-5.73,0,*4C
1496862467.9,32826,18.69,73946.8,0.57,-6.97,-5.73,0,*4B
1496862469.13,32827,18.69,73942.0,0.57,-6.97,-5.73,0,*4A
1496862470.35,32828,18.69,73944.5,0.57,-7.05,-5.77,0,*4B
1496862471.57,32829,18.69,73940.8,0.57,-7.05,-5.73,0,*4E
1496862472.79,32830,18.69,73942.5,0.57,-7.05,-5.77,0,*42
1496862474.02,32831,18.75,73946.0,0.57,-7.05,-5.77,0,*43
1496862475.22,32832,18.69,73944.0,0.57,-7.11,-5.77,0,*45
1496862476.42,32833,18.69,73944.5,0.57,-7.11,-5.77,0,*44
1496862477.65,32834,18.69,73940.8,0.59,-7.15,-5.81,0,*40
1496862478.91,32835,18.69,73944.5,0.59,-7.05,-5.93,0,*43
1496862480.12,32836,18.69,73942.5,0.57,-7.19,-5.85,0,*44
1496862481.35,32837,18.69,73942.5,0.59,-7.15,-5.81,0,*43
1496862482.55,32838,18.69,73940.8,0.57,-7.19,-5.93,0,*4D
1496862483.79,32839,18.69,73938.5,0.59,-7.19,-5.89,0,*49
1496862484.99,32840,18.69,73942.3,0.57,-7.31,-6.05,0,*44
1496862486.18,32841,18.69,73940.3,0.57,-7.31,-6.01,0,*41
1496862487.4,32842,18.69,73940.5,0.59,-7.27,-5.97,0,*47
1496862488.63,32843,18.69,73938.5,0.59,-7.31,-6.01,0,*4D
1496862489.85,32844,18.69,73936.0,0.55,-7.43,-6.01,0,*43
1496862491.08,32845,18.69,73938.3,0.55,-7.43,-6.13,0,*41
1496862492.28,32846,18.69,73936.8,0.57,-7.35,-6.13,0,*41
1496862493.45,32847,18.69,73936.0,0.57,-7.49,-6.13,0,*4B
1496862494.65,32848,18.69,73936.5,0.57,-7.49,-6.19,0,*4E
1496862495.82,32849,18.69,73936.0,0.57,-7.49,-6.13,0,*45
1496862497.02,32850,18.69,73940.0,0.57,-7.57,-6.13,0,*42
1496862498.19,32851,18.69,73938.8,0.57,-7.49,-6.13,0,*4C
1496862499.42,32852,18.69,73936.0,0.57,-7.57,-6.27,0,*47
1496862500.65,32853,18.69,73936.3,0.57,-7.57,-6.19,0,*4B
1496862501.86,32854,18.69,73938.0,0.57,-7.57,-6.13,0,*46
1496862503.09,32855,18.69,73936.0,0.57,-7.65,-6.27,0,*41
1496862504.34,32856,18.69,73936.0,0.59,-7.57,-6.27,0,*4D
1496862505.59,32857,18.69,73938.3,0.59,-7.61,-6.27,0,*49
1496862506.8,32858,18.69,73936.0,0.57,-7.61,-6.31,0,*4F
1496862508.01,32859,18.69,73936.0,0.57,-7.65,-6.31,0,*4A
1496862509.21,32860,18.69,73936.3,0.57,-7.61,-6.31,0,*44
1496862510.42,32861,18.69,73938.0,0.57,-7.73,-6.31,0,*46
1496862511.64,32862,18.69,73936.5,0.57,-7.73,-6.31,0,*45
1496862512.85,32863,18.69,73936.5,0.57,-7.73,-6.31,0,*44
1496862514.06,32864,18.69,73940.0,0.57,-7.73,-6.31,0,*43